Home > Weather > Nablus > Past weeks

Flag for Palestinian Territories Past Weather in Nablus, West Bank, Palestinian Territories — Yesterday and Last 2 Weeks

Now
88 °F

Passing clouds.


Feels Like: 91 °F
Forecast: 74 / 85 °F
Wind: 13 mph from Northwest

Location: Ben Gurion International Airport

Current Time: Aug 28, 2016 at 3:27:49 PM

Latest Report: Aug 28, 2016 at 2:50 PM


Visibility: N/A

Pressure: 29.89 "Hg (28.15 "Hg at 534m altitude)

Humidity: 52%

Dew Point: 68 °F

Location of NablusLocation

Past Weather in Nablus — Graph

°F

Nablus Temperature Yesterday

Maximum temperature yesterday: 90 °F (at 11:50 AM)
Minimum temperature yesterday: 77 °F (at 4:50 AM)
Average temperature yesterday: 83 °F

High & Low Weather Summary for the Past Weeks

 TemperatureHumidityPressure
High91 °F (Aug 14, 12:50 PM)84% (Aug 15, 3:50 AM)29.95 "Hg (Aug 15, 3:50 AM)
Low75 °F (Aug 16, 6:20 AM)43% (Aug 27, 12:50 PM)29.71 "Hg (Aug 17, 3:50 PM)
Average83 °F65%29.81 "Hg
* Reported Aug 13 2:20 PM — Aug 28 2:20 PM, Nablus, Weather by CustomWeather, © 2016

Note: Actual official high and low records may vary slightly from our data, if they occured in-between our weather recording intervals... More about our weather records

Advertising

Nablus Weather History for the Previous 24 Hours

Scroll right to see more
 ConditionsComfort  
Time TempWeatherWind HumidityBarometerVisibility
2:20 PM
Sun, Aug 28
88 °FPassing clouds.13 mph52%29.89 "HgN/A
1:50 PM88 °FSunny.13 mph52%29.89 "Hg10 mi
1:20 PM88 °FPassing clouds.13 mph49%29.92 "HgN/A
11:50 AM88 °FPassing clouds.10 mph55%29.92 "HgN/A
11:20 AM88 °FPassing clouds.8 mph52%29.92 "HgN/A
10:50 AM88 °FPassing clouds.5 mph49%29.92 "HgN/A
10:20 AM86 °FPassing clouds.6 mph55%29.92 "HgN/A
9:50 AM84 °FScattered clouds.2 mph58%29.92 "HgN/A
9:20 AM84 °FScattered clouds.2 mph58%29.92 "HgN/A
8:50 AM82 °FPassing clouds.3 mph62%29.92 "HgN/A
8:20 AM84 °FPassing clouds.1 mph58%29.92 "HgN/A
7:50 AM81 °FPassing clouds.3 mph66%29.92 "HgN/A
7:20 AM79 °FScattered clouds.2 mph70%29.92 "Hg6 mi
6:50 AM79 °FPassing clouds.2 mph70%29.92 "HgN/A
6:20 AM79 °FPassing clouds.6 mph70%29.92 "HgN/A
5:50 AM79 °FPassing clouds.5 mph70%29.92 "HgN/A
5:20 AM77 °FPassing clouds.2 mph74%29.89 "HgN/A
4:50 AM77 °FPassing clouds.2 mph74%29.89 "HgN/A
4:20 AM77 °FPassing clouds.2 mph74%29.89 "HgN/A
3:50 AM79 °FPassing clouds.3 mph70%29.89 "HgN/A
3:20 AM81 °FPassing clouds.3 mph66%29.89 "HgN/A
2:50 AM81 °FPassing clouds.2 mph66%29.89 "HgN/A
2:20 AM81 °FPassing clouds.5 mph66%29.89 "HgN/A
1:50 AM81 °FPassing clouds.5 mph70%29.92 "HgN/A
1:20 AM81 °FPassing clouds.6 mph70%29.92 "HgN/A
12:50 AM81 °FPassing clouds.5 mph70%29.92 "HgN/A
12:20 AM81 °FPassing clouds.N/A70%29.92 "HgN/A
11:50 PM
Sat, Aug 27
82 °FPassing clouds.7 mph66%29.92 "HgN/A
11:20 PM82 °FPassing clouds.5 mph66%29.95 "HgN/A
10:50 PM82 °FPassing clouds.7 mph66%29.95 "HgN/A
10:20 PM82 °FPassing clouds.6 mph66%29.95 "HgN/A
9:50 PM82 °FPassing clouds.6 mph66%29.95 "HgN/A
9:20 PM82 °FPassing clouds.7 mph66%29.92 "HgN/A
8:50 PM82 °FPassing clouds.7 mph66%29.92 "HgN/A
8:20 PM82 °FPassing clouds.8 mph66%29.92 "HgN/A
7:50 PM84 °FPassing clouds.12 mph62%29.89 "HgN/A
7:20 PM84 °FSunny.10 mph62%29.89 "Hg10 mi
6:50 PM84 °FSunny.12 mph62%29.89 "Hg10 mi
6:20 PM86 °FSunny.12 mph59%29.89 "Hg10 mi
5:50 PM86 °FSunny.13 mph55%29.89 "Hg10 mi
5:20 PM86 °FPassing clouds.13 mph55%29.89 "HgN/A
4:50 PM86 °FPassing clouds.15 mph59%29.89 "HgN/A
4:20 PM88 °FPassing clouds.14 mph55%29.89 "HgN/A
3:50 PM88 °FSunny.15 mph52%29.89 "Hg10 mi
3:20 PM88 °FSunny.15 mph52%29.89 "Hg10 mi
Weather by CustomWeather, © 2016

See weather overviewHow to use our weather pages